STARLINK-32536, 61925

Orbit data source: Space-Track

STARLINK-32536, 61925 is a payload satellite owned by SpaceX/Seattle (US) in LEO that was launched on Mon, 11 Nov 2024 UTC via an FALCON 9 launch vehicle from the Air Force Eastern Test Range (AFETR). Payload-class satellites include a variety of spacecraft equipped with specific instruments for various scientific and technological missions. These include communications satellites like Starlink; space stations such as the ISS; scientific satellites like the Hubble; Earth observation satellites from companies like Planet Labs, Umbra, and HawkEye 360; GPS; miniature CubeSats for education and research; and military/defense satellites.

Loading next visibility...
Identifier
61925, 2024-207P
Orbit
LEO
Last TLE update
8 hours ago
Origin
Manufacturer
SpaceX/Seattle
Mission
Operational Commercial Communications
Bus & Motor
STARLINK V2M, Unknown motor
Mass
730 kg wet, ~700 kg dry
Launch date (UTC)
2024-11-11 (8 months ago)
Launch vehicle
FALCON 9
Launch site
Air Force Eastern Test Range (AFETR)
Object type
Payload
Rocket body
Debris
Shape & HBR
Box + 2 Pan, 29 m
Radar Cross Section
36.964 m², Large (>1 m²)

Expand to show TLE details & history

TLE from 8 hours ago
0 STARLINK-32536
1 61925U 24207P   25186.51207920  .00013954  00000-0  51545-3 0  9991
2 61925  42.9977 241.6265 0001481 275.2628  84.8055 15.27592294 36875
Epoch: 2025-07-05T12:17Z
TLE epoch observation values (Epoch: 2025-07-05T12:17:23.642Z)
Latitude
-0.00001°
Longitude
133.52892°
Altitude
482.696 km
Speed
7.626 km/s
True Right ascension
16h 06m 30s
True Declination
0° 00' 00"
Sunlit
Object was in full shadow at epoch
Visualization orbit readout
Latitude
37.61682°
Longitude
-173.11382°
Altitude
485.795 km
Speed
7.627 km/s
Apparent Right ascension
19h 59m 09s
Apparent Declination
0° 32' 32"
Sunlit
Object is in full shadow
Visualization observer readout
Local Sidereal Time
08:20:31
Azimuth
8.198° NNE
Elevation
-49.248°
Doppler factor
1
Orbital elements
Apogee altitude
485.974 km
Perigee altitude
483.941 km
Semi-major axis
6,863.095 km
Eccentricity
0.00015
Inclination
42.9977°
RAAN
241.6265°
Arg. of periapsis
275.2628°
True anomaly
Unknown
Mean anomaly
84.8055°
Eccentric anomaly
Unknown
Mean motion
3.81736 °/min
Orbital period
94.31 mins
BSTAR
0.00051545
Loading maneuver chart data...
Loading SW <> Apogee altitude chart data...
Loading historical data...
Loading historical data...
Loading historical data...
Loading historical data...
Loading historical data...
Loading historical data...
Loading historical data...

STARLINK-32536 Visibility forecast

Observer location: undefined°, undefined°

Span
Click to sort rows by Start time (UTC) header in descending order
Start Az.
Max El. time (UTC)
Max El. Az.
Max El.
End time (UTC)
End Az.
5 mins2025-07-06 07:21:39.808Z222.765° SW2025-07-06 07:23:39.808Z151.363° SSE39.097°2025-07-06 07:26:39.808Z79.225° E
5 mins2025-07-06 09:00:39.808Z281.124° WNW2025-07-06 09:02:39.808Z357.38° N40.091°2025-07-06 09:05:39.808Z69.576° E
5 mins2025-07-06 10:39:39.808Z295.698° NW2025-07-06 10:41:39.808Z356.399° N40.688°2025-07-06 10:44:39.808Z87.861° E
5 mins2025-07-06 12:18:39.808Z271.877° WNW2025-07-06 12:20:39.808Z211.749° SW36.722°2025-07-06 12:23:39.808Z135.052° SSE
|